Regional Weather Roundup
Issued by NWS Goodland, KS

Home | Current Version | Previous Version | Graphics & Text | Print | Product List | Glossary Off
Versions: 1 2 3 4 5 6 7 8 9 10 11 12 13 14 15 16 17 18 19 20 21 22 23 24 25 26 27 28 29 30 31 32 33 34 35 36 37 38 39 40 41 42 43 44 45 46 47 48 49 50

000
ASUS43 KGLD 031359
RWRGLD

GOODLAND FORECAST AREA HOURLY WEATHER ROUNDUP
NATIONAL WEATHER SERVICE GOODLAND KS
800 AM MDT SUN MAY 03 2015

...OFFICIAL OBSERVATIONS...

CITY           SKY/WX    TMP DP  RH WIND       PRES   REMARKS
GOODLAND KS    SUNNY     62  47  57 W8        29.87R
HILL CITY KS   SUNNY     67  50  54 W3        29.82R
IMPERIAL NEB   SUNNY     65  44  46 W13       29.82R
MCCOOK NEB     SUNNY     64  47  53 SW8       29.82R
AKRON CO       SUNNY     59  43  55 W16       29.92R
BURLINGTON CO  MOSUNNY   61  45  55 W6        29.90R
LIMON CO       SUNNY     59  41  51 W13       29.96R
$$

...UNOFFICIAL OBSERVATIONS...

CITY           SKY/WX    TMP DP  RH WIND       PRES   REMARKS
COLBY KS       SUNNY     64  52  63 SW6       29.87R
GOVE KS          N/A     63  32  31 MISG        N/A
LENORA KS        N/A     67  32  27 MISG        N/A
NORTON KS      SUNNY     68  45  42 SW8       29.81R
SHARON SPRINGS   N/A     62  50  65 MISG        N/A
KIT CARSON CO    N/A     52  46  79 MISG        N/A
YUMA CO          N/A     58  47  68 N10         N/A
$$



USA.gov is the U.S. government's official web portal to all federal, state and local government web resources and services.